Погода в Илбенге

Россия / Республика Саха (Якутия)     62°49′51″N   124°23′17″E
темп.,
°C
ветер,
м/с
пор.,
м/с
влажн.,
%
обл.,
%
осадки,
мм/ч
давл.,
гПа
погр.,
м
27 февраля, сб
сб2700:00−29вюв3797100 0.0 1029159
03:00−30в359899 0.0 1028105
06:00−32в369822 0.0 1027122
09:00−32в389749 0.0 1027192
12:00−27в3694100 0.0 1025273
15:00−26в3594100 0.0 1022343
18:00−26всв2598100 0.1 1023338
21:00−26св2399100 0.8 1021169
28 февраля, вс
вс2800:00−27с1299100 0.4 102170
03:00−27сз3598100 0.7 1021290
06:00−28зсз3796100 0.3 1022454
09:00−29зсз4995100 0.6 1023490
12:00−27зсз5993100 0.2 1025625
15:00−26зсз5993100 0.4 1025686
18:00−27зсз41093100 0.2 1027689
21:00−28зсз41194100 0.3 1028644
1 марта, пн
пн100:00−28зсз41194100 0.1 1028601
03:00−28зсз41093100 0.2 1028570
06:00−29зсз41092100 0.0 1029492
09:00−29зсз4991100 0.1 1029473
12:00−28зсз4891100 0.0 1029477
15:00−27зсз3789100 0.0 1028546
18:00−28з3793100 0.0 1029448
21:00−30з2796100 0.0 1029282
2 марта, вт
вт200:00−31з2497100 0.0 1028123
03:00−32зсз2397100 0.0 102893
06:00−33з1297100 0.0 102824
09:00−33з1297100 0.0 102782
12:00−29сз1291100 0.0 1027353
15:00−28с1189100 0.1 1026421
18:00−32ссв1298100 0.0 102619
21:00−36ссв1110079 0.0 102719
3 марта, ср
ср300:00−37ссз0110056 0.0 102719
03:00−38ссз1110056 0.0 102719
06:00−39ссз1110056 0.0 102618
09:00−36сз129866 0.0 102646
12:00−32сз2393100 0.0 1025295
15:00−31сз2494100 0.1 1024381
18:00−32сз2696100 0.1 1024349
21:00−32зсз3796100 0.1 1023398